ACA290 KPDX-KSFO

Flight info

Callsign ACA290
Flight time 1h 5m
Altitude 37000
Route MINNE5 EASON Q1 ETCHY MLBEC BDEGA4
Aircraft B738/M-SDGIJ1LRWY/SB1

Departure

Time 2026-04-30 17:41
Airport Portland International Airport (KPDX)

Arrival

Time 2026-04-30 18:46
Airport San Francisco International Airport (KSFO)
Time Latitude Longitude Altitude Speed Heading
2026-04-30 17:39 45.63518 -122.71686 4857 ft 258 kts 302°
2026-04-30 17:41 45.62621 -123.00982 12349 ft 351 kts 155°
2026-04-30 17:42 45.57940 -122.99093 12797 ft 383 kts 183°
2026-04-30 17:42 45.50253 -123.02788 13648 ft 418 kts 200°
2026-04-30 17:43 45.44664 -123.05309 14741 ft 426 kts 195°
2026-04-30 17:44 45.36120 -123.08083 16299 ft 436 kts 192°
2026-04-30 17:44 45.27072 -123.10680 17717 ft 447 kts 191°
2026-04-30 17:46 45.12020 -123.15034 19829 ft 463 kts 192°
2026-04-30 17:47 44.99557 -123.18654 21385 ft 474 kts 193°
2026-04-30 17:48 44.86536 -123.22424 22860 ft 484 kts 193°
2026-04-30 17:48 44.76594 -123.25288 23943 ft 490 kts 193°
2026-04-30 17:49 44.63191 -123.29132 25326 ft 497 kts 193°
2026-04-30 17:50 44.49476 -123.32684 26433 ft 505 kts 187°
2026-04-30 17:51 44.38968 -123.32864 27552 ft 503 kts 179°
2026-04-30 17:52 44.28518 -123.32207 28358 ft 504 kts 179°
2026-04-30 17:53 44.11086 -123.31326 29869 ft 498 kts 180°
2026-04-30 17:54 43.98133 -123.30810 31319 ft 488 kts 180°
2026-04-30 17:55 43.84622 -123.30283 32564 ft 486 kts 180°
2026-04-30 17:56 43.71566 -123.29765 34329 ft 469 kts 181°
2026-04-30 17:57 43.62310 -123.29390 34438 ft 422 kts 181°
2026-04-30 17:58 43.53991 -123.29056 34393 ft 380 kts 182°
2026-04-30 17:59 43.44428 -123.28684 34381 ft 325 kts 182°
2026-04-30 18:00 43.35551 -123.28366 34777 ft 341 kts 183°
2026-04-30 18:00 43.28658 -123.28114 34895 ft 360 kts 182°
2026-04-30 18:01 43.23918 -123.27933 34962 ft 373 kts 182°
2026-04-30 18:02 43.16414 -123.27645 35083 ft 395 kts 182°
2026-04-30 18:02 43.07976 -123.27324 35202 ft 419 kts 182°
2026-04-30 18:03 42.99065 -123.26985 35351 ft 445 kts 182°
2026-04-30 18:04 42.89867 -123.26636 35501 ft 471 kts 182°
2026-04-30 18:05 42.77000 -123.26137 36639 ft 480 kts 182°
2026-04-30 18:06 42.64663 -123.25662 37120 ft 497 kts 182°
2026-04-30 18:07 42.52055 -123.25168 37118 ft 476 kts 182°
2026-04-30 18:08 42.42699 -123.24817 37111 ft 482 kts 182°
2026-04-30 18:10 42.17599 -123.23896 37101 ft 481 kts 182°
2026-04-30 18:11 41.95240 -123.23080 37138 ft 483 kts 183°
2026-04-30 18:13 41.78799 -123.22481 37148 ft 482 kts 183°
2026-04-30 18:14 41.62344 -123.21885 37142 ft 482 kts 183°
2026-04-30 18:15 41.43076 -123.21216 37132 ft 481 kts 183°
2026-04-30 18:16 41.29778 -123.20770 37123 ft 482 kts 184°
2026-04-30 18:17 41.23096 -123.20598 37135 ft 482 kts 184°
2026-04-30 18:18 41.13361 -123.20366 37138 ft 481 kts 184°
2026-04-30 18:18 41.06897 -123.20207 37140 ft 481 kts 184°
2026-04-30 18:19 41.00218 -123.20043 37145 ft 481 kts 184°
2026-04-30 18:19 40.93560 -123.19877 37139 ft 481 kts 184°
2026-04-30 18:20 40.86863 -123.19707 37128 ft 481 kts 184°
2026-04-30 18:20 40.80180 -123.19542 37104 ft 483 kts 184°
2026-04-30 18:21 40.73692 -123.19380 37083 ft 482 kts 184°
2026-04-30 18:21 40.67432 -123.19222 37102 ft 480 kts 184°
2026-04-30 18:22 40.60753 -123.19057 37104 ft 481 kts 184°
2026-04-30 18:22 40.50710 -123.18810 37128 ft 481 kts 184°
2026-04-30 18:23 39.96048 -123.17473 37252 ft 482 kts 184°
2026-04-30 18:23 39.42170 -123.15661 37567 ft 482 kts 183°
2026-04-30 18:23 39.07303 -123.13557 36874 ft 480 kts 179°
2026-04-30 18:24 39.00794 -123.11158 36443 ft 494 kts 161°
2026-04-30 18:24 38.97635 -123.09494 36160 ft 490 kts 161°
2026-04-30 18:24 38.94665 -123.07906 35896 ft 490 kts 161°
2026-04-30 18:25 38.91732 -123.06326 35639 ft 493 kts 160°
2026-04-30 18:25 38.85639 -123.03017 35101 ft 496 kts 160°
2026-04-30 18:25 38.82472 -123.01288 34819 ft 496 kts 160°
2026-04-30 18:26 38.76173 -122.97843 34269 ft 498 kts 160°
2026-04-30 18:26 38.72966 -122.96090 33995 ft 498 kts 160°
2026-04-30 18:26 38.70038 -122.94490 33748 ft 499 kts 160°
2026-04-30 18:27 38.63637 -122.90999 33221 ft 499 kts 160°
2026-04-30 18:27 38.60456 -122.89267 32963 ft 499 kts 160°
2026-04-30 18:28 38.54020 -122.86066 32438 ft 493 kts 165°
2026-04-30 18:28 38.50780 -122.84849 32188 ft 481 kts 168°
2026-04-30 18:28 38.44581 -122.82939 30977 ft 475 kts 171°
2026-04-30 18:29 38.41374 -122.82044 30487 ft 468 kts 171°
2026-04-30 18:29 38.31963 -122.79439 28774 ft 458 kts 170°
2026-04-30 18:30 38.26154 -122.77794 27736 ft 450 kts 169°
2026-04-30 18:30 38.20016 -122.76030 26596 ft 444 kts 169°
2026-04-30 18:31 38.17005 -122.75160 25886 ft 439 kts 169°
2026-04-30 18:31 38.11025 -122.73429 24025 ft 427 kts 169°
2026-04-30 18:32 38.05372 -122.71792 22240 ft 417 kts 168°
2026-04-30 18:32 38.02514 -122.70965 21336 ft 412 kts 168°
2026-04-30 18:32 37.96978 -122.69363 19582 ft 401 kts 167°
2026-04-30 18:33 37.94252 -122.68574 18730 ft 395 kts 167°
2026-04-30 18:33 37.89132 -122.66263 16971 ft 384 kts 148°
2026-04-30 18:33 37.87121 -122.64532 16180 ft 377 kts 141°
2026-04-30 18:34 37.85165 -122.62550 15386 ft 371 kts 138°
2026-04-30 18:34 37.81374 -122.58405 13991 ft 350 kts 136°
2026-04-30 18:34 37.79650 -122.56496 13579 ft 337 kts 136°
2026-04-30 18:35 37.77942 -122.54641 13216 ft 321 kts 137°
2026-04-30 18:35 37.76378 -122.52969 12861 ft 309 kts 137°
2026-04-30 18:35 37.74961 -122.51466 12613 ft 302 kts 137°
2026-04-30 18:36 37.72168 -122.48508 11947 ft 299 kts 137°
2026-04-30 18:36 37.70785 -122.47035 11633 ft 296 kts 137°
2026-04-30 18:36 37.68007 -122.44075 11013 ft 291 kts 137°
2026-04-30 18:37 37.66703 -122.42688 10968 ft 288 kts 137°
2026-04-30 18:37 37.65331 -122.41228 10961 ft 292 kts 137°
2026-04-30 18:37 37.63921 -122.39729 10961 ft 292 kts 137°
2026-04-30 18:37 37.62523 -122.38247 10965 ft 292 kts 137°
2026-04-30 18:38 37.61131 -122.36752 10947 ft 290 kts 134°
2026-04-30 18:38 37.60051 -122.34965 10707 ft 282 kts 114°
2026-04-30 18:38 37.59488 -122.32896 10339 ft 278 kts 102°
2026-04-30 18:38 37.58982 -122.30789 9991 ft 279 kts 108°
2026-04-30 18:39 37.58316 -122.28792 9670 ft 278 kts 113°
2026-04-30 18:39 37.57557 -122.26866 9347 ft 277 kts 115°
2026-04-30 18:39 37.56755 -122.24939 9037 ft 275 kts 116°
2026-04-30 18:39 37.55974 -122.23077 8898 ft 266 kts 116°
2026-04-30 18:40 37.55114 -122.21289 8726 ft 261 kts 130°
2026-04-30 18:40 37.53798 -122.20088 8502 ft 260 kts 156°
2026-04-30 18:40 37.52171 -122.19612 8300 ft 256 kts 176°
2026-04-30 18:40 37.50569 -122.19733 8265 ft 244 kts 190°
2026-04-30 18:41 37.49076 -122.20207 8128 ft 243 kts 199°
2026-04-30 18:41 37.47704 -122.21184 7613 ft 242 kts 223°
2026-04-30 18:41 37.46858 -122.22735 6817 ft 238 kts 253°
2026-04-30 18:41 37.46806 -122.24538 5990 ft 231 kts 287°
2026-04-30 18:42 37.47561 -122.26089 4748 ft 240 kts 320°
2026-04-30 18:42 37.50413 -122.26539 2438 ft 233 kts 20°
2026-04-30 18:42 37.51725 -122.25962 2024 ft 206 kts 12°
2026-04-30 18:45 37.59782 -122.32020 708 ft 147 kts 298°
2026-04-30 18:45 37.60256 -122.33141 524 ft 146 kts 298°
2026-04-30 18:45 37.60746 -122.34297 321 ft 153 kts 298°
2026-04-30 18:46 37.61250 -122.35492 116 ft 156 kts 298°
2026-04-30 18:46 37.61735 -122.36643 11 ft 136 kts 297°
2026-04-30 18:46 37.62076 -122.37456 20 ft 45 kts 302°